Regional Weather Roundup
Issued by NWS

Home | Current Version | Previous Version | Graphics & Text | Print | Product List | Glossary On
Versions: 1 2 3 4 5 6 7 8 9 10 11 12 13 14 15 16 17 18 19 20 21 22 23 24 25 26 27
000
ASUS45 KSLC 180310
RWRUT

UTAH REGIONAL WEATHER ROUNDUP
NATIONAL WEATHER SERVICE SALT LAKE CITY UT
900 PM MDT THU AUG 17 2017

UTZ001>011-023>025-180400-

NORTHERN UTAH

CITY           SKY/WX    TMP DP  RH WIND       PRES   REMARKS
BRIGHAM CITY   CLEAR     79  34  19 CALM      30.09R
HILL AFB       CLEAR     80  31  16 E3        30.12R
LOGAN          CLEAR     72  44  36 N10       30.09R
OGDEN          CLEAR     80  33  18 SE3       30.08R
SALT LAKE CITY CLEAR     85  37  18 CALM      30.07R
TOOELE VALLEY  CLEAR     72  41  33 S7        30.09R
WENDOVER       CLEAR     83  38  20 S7        30.06R
HEBER CITY     CLEAR     72  39  30 SE3       30.17S
WEST JORDAN    CLEAR     76  50  40 SW6       30.12R

$$

UTZ011>015-024>027-180400-

CENTRAL/NORTHEAST UTAH

CITY           SKY/WX    TMP DP  RH WIND       PRES   REMARKS
PROVO AIRPORT  CLEAR     75  61  61 NW8       30.11R
MOAB/CANYONLAN CLEAR     79  28  15 CALM      30.05S
DELTA          CLEAR     81  32  17 CALM      30.11R
PRICE          CLEAR     75  36  24 N7        30.18R
ROOSEVELT      CLEAR     77  39  25 NW6       30.15R
VERNAL         CLOUDY    75  42  30 NW6       30.13R

$$

UTZ013>016-019>022-027-180400-

SOUTHERN UTAH

CITY           SKY/WX    TMP DP  RH WIND       PRES   REMARKS
BRYCE CANYON   PTCLDY    61  43  51 W8        30.35R
CEDAR CITY     CLEAR     75  36  24 SW8       30.17R
MILFORD        CLEAR     76  32  20 W3        30.11R
ST GEORGE      CLEAR     92  39  15 W8        29.96R
HANKSVILLE     CLEAR     86  30  13 SW3       30.08R
BLANDING       CLEAR     69  34  28 NW5       30.26R

$$

REGIONAL REPORTS     COLORADO/ARIZONA

CITY           SKY/WX    TMP DP  RH WIND       PRES   REMARKS
CRAIG, CO      CLEAR     65  32  29 SW7       30.22R
GRAND JUNCTION CLEAR     76  30  18 NE6       30.09R
RIFLE, CO      CLEAR     72  33  24 SE6       30.17R
MONTROSE, CO   CLEAR     71  43  36 S7        30.20R
CORTEZ, CO     CLEAR     66  34  30 CALM      30.20R
COLORADO CITY    N/A     75  45  33 CALM      30.15S
PAGE, AZ       CLEAR     86  33  15 SE3       30.05R
GRAND CANYON   PTCLDY    61  36  39 CALM      30.30R
KINGMAN, AZ    CLEAR     83  37  19 S9        30.04R
FLAGSTAFF, AZ  CLEAR     61  36  39 CALM      30.33R

$$

REGIONAL REPORTS    NEVADA/IDAHO/WYOMING

CITY           SKY/WX    TMP DP  RH WIND       PRES   REMARKS
LAS VEGAS, NV  PTCLDY    97  38  13 CALM      29.91S HX  92
ELY, NY        CLEAR     66  33  29 S8        30.22R
ELKO, NV       CLEAR     74  30  19 SW6       30.14R
POCATELLO, ID  CLEAR     69  39  33 S9        30.12R
BURLEY, ID     CLEAR     70  47  43 S9        30.09R
FORT BRIDGER,    N/A     67  32  27 W7        30.32R
EVANSTON, WY   CLEAR     65  29  25 W10       30.31R
ROCK SPRINGS,  CLEAR     70  27  20 W13       30.25R
KEMMERER, WY     N/A    N/A N/A N/A W7        30.31R

$$




USA.gov is the U.S. government's official web portal to all federal, state and local government web resources and services.